Terug naar catalogus

SITRO-AIS-13

ActiefCommunicatieSSO
NORAD 61743·PAYLOAD·🇷🇺 Russia
Deze satellietnaam is nog niet bevestigd door officiële bronnen.

Gelanceerd Nov 4, 2024 vanaf Vostochny Cosmodrome

Loading…

Volgende Passages (komende 24 uur)

TLE

VersSource: Space-Track

Epoch: Sep 14, 2026, 15:13 UTC

1 61743U 24199J   26257.63426795  .00002497  00000-0  21446-3 0  9992
2 61743  97.3204  91.6296 0007932 114.2896 245.9157 14.98264478145380

Volg SITRO-AIS-13 in realtime met AllMySat

Download on the App Store